When you browse on this site, cookies collect data to enhance your experience and personalize the content and advertising you see.
Visit our Privacy Policy to learn more. By continuing to use the site, you agree to this use of cookies and data.
  • In France
  • List of Countries
  • For 7 days
  • Water Temperature
  • Weather Map
  • Weather Widgets
  • user-avatar
    Login

    Hourly Weather Masvingo

    Today, 7 December, Saturday

    Time Temperature Precipitation Wind Pressure Humidity
    00:00 +21°C° 0 mm 2 mps 670 mmHg 75%
    01:00 +20°C° 0 mm 2 mps 669 mmHg 75%
    02:00 +20°C° 0 mm 2 mps 669 mmHg 74%
    03:00 +20°C° 0 mm 2 mps 669 mmHg 75%
    04:00 +21°C° 0 mm 1 mps 669 mmHg 75%
    05:00 +21°C° 0 mm 1 mps 669 mmHg 76%
    06:00 +23°C° 0 mm 2 mps 669 mmHg 67%
    07:00 +26°C° 0 mm 2 mps 670 mmHg 57%
    08:00 +28°C° 0 mm 2 mps 671 mmHg 49%
    09:00 +31°C° 0 mm 2 mps 671 mmHg 43%
    10:00 +34°C° 0 mm 2 mps 671 mmHg 37%
    11:00 +35°C° 0 mm 1 mps 670 mmHg 31%
    12:00 +35°C° 0 mm 1 mps 670 mmHg 31%
    13:00 +34°C° 0 mm 1 mps 669 mmHg 31%
    14:00 +34°C° 0 mm 1 mps 668 mmHg 32%
    15:00 +34°C° 0 mm 2 mps 668 mmHg 33%
    16:00 +34°C° 0 mm 2 mps 668 mmHg 34%
    17:00 +34°C° 0 mm 3 mps 667 mmHg 35%
    18:00 +31°C° 0 mm 2 mps 668 mmHg 40%
    19:00 +29°C° 0 mm 2 mps 668 mmHg 46%
    20:00 +28°C° 0 mm 1 mps 668 mmHg 51%
    21:00 +27°C° 0.1 mm 1 mps 668 mmHg 54%
    22:00 +27°C° 0.1 mm 1 mps 668 mmHg 57%
    23:00 +26°C° 0.1 mm 1 mps 668 mmHg 60%

    Tomorrow, 8 December, Sunday

    Time Temperature Precipitation Wind Pressure Humidity
    00:00 +26°C° 0 mm 1 mps 668 mmHg 60%
    01:00 +26°C° 0 mm 1 mps 668 mmHg 59%
    02:00 +26°C° 0 mm 1 mps 667 mmHg 58%
    03:00 +25°C° 0 mm 1 mps 667 mmHg 59%
    04:00 +24°C° 0 mm 1 mps 667 mmHg 61%
    05:00 +24°C° 0 mm 1 mps 667 mmHg 62%
    06:00 +26°C° 0 mm 1 mps 668 mmHg 57%
    07:00 +27°C° 0 mm 1 mps 669 mmHg 52%
    08:00 +29°C° 0 mm 1 mps 669 mmHg 47%
    09:00 +32°C° 0 mm 1 mps 669 mmHg 41%
    10:00 +34°C° 0 mm 1 mps 669 mmHg 36%
    11:00 +37°C° 0 mm 2 mps 669 mmHg 31%
    12:00 +35°C° 0.2 mm 2 mps 668 mmHg 37%
    13:00 +33°C° 0.2 mm 3 mps 667 mmHg 44%
    14:00 +30°C° 0.2 mm 3 mps 666 mmHg 50%
    15:00 +28°C° 1.5 mm 3 mps 666 mmHg 60%
    16:00 +26°C° 1.5 mm 3 mps 666 mmHg 70%
    17:00 +24°C° 1.5 mm 2 mps 666 mmHg 79%
    18:00 +24°C° 2.5 mm 2 mps 666 mmHg 82%
    19:00 +23°C° 2.5 mm 2 mps 667 mmHg 85%
    20:00 +21°C° 2.5 mm 2 mps 667 mmHg 88%
    21:00 +21°C° 0.2 mm 2 mps 668 mmHg 87%
    22:00 +23°C° 0.2 mm 2 mps 668 mmHg 86%
    23:00 +23°C° 0.2 mm 2 mps 668 mmHg 84%

    Day after tomorrow, 9 December, Monday

    Time Temperature Precipitation Wind Pressure Humidity
    00:00 +23°C° 0.3 mm 2 mps 668 mmHg 86%
    01:00 +21°C° 0.3 mm 2 mps 667 mmHg 88%
    02:00 +22°C° 0.3 mm 1 mps 667 mmHg 89%
    03:00 +22°C° 0.5 mm 1 mps 667 mmHg 90%
    04:00 +22°C° 0.5 mm 1 mps 667 mmHg 90%
    05:00 +22°C° 0.5 mm 1 mps 667 mmHg 90%
    06:00 +23°C° 1.2 mm 1 mps 668 mmHg 86%
    07:00 +24°C° 1.2 mm 2 mps 668 mmHg 82%
    08:00 +25°C° 1.2 mm 2 mps 669 mmHg 77%
    09:00 +26°C° 1.2 mm 2 mps 669 mmHg 72%
    10:00 +27°C° 1.2 mm 1 mps 669 mmHg 66%
    11:00 +29°C° 1.2 mm 1 mps 669 mmHg 61%
    12:00 +29°C° 1.2 mm 2 mps 668 mmHg 63%
    13:00 +28°C° 1.2 mm 3 mps 668 mmHg 65%
    14:00 +28°C° 1.2 mm 4 mps 667 mmHg 67%
    15:00 +27°C° 0.9 mm 4 mps 667 mmHg 70%
    16:00 +27°C° 0.9 mm 4 mps 667 mmHg 74%
    17:00 +26°C° 0.9 mm 5 mps 666 mmHg 78%
    18:00 +25°C° 2.4 mm 5 mps 667 mmHg 80%
    19:00 +23°C° 2.4 mm 5 mps 667 mmHg 83%
    20:00 +22°C° 2.4 mm 5 mps 668 mmHg 86%
    21:00 +22°C° 3 mm 5 mps 668 mmHg 88%
    22:00 +21°C° 3 mm 4 mps 668 mmHg 91%
    23:00 +21°C° 3 mm 4 mps 668 mmHg 94%

    10 December, Tuesday

    Time Temperature Precipitation Wind Pressure Humidity
    00:00 +21°C° 1.4 mm 3 mps 667 mmHg 94%
    01:00 +21°C° 1.4 mm 3 mps 667 mmHg 94%
    02:00 +21°C° 1.4 mm 2 mps 667 mmHg 94%
    03:00 +21°C° 1.3 mm 2 mps 667 mmHg 93%
    04:00 +21°C° 1.3 mm 2 mps 667 mmHg 92%
    05:00 +22°C° 1.3 mm 1 mps 667 mmHg 92%
    06:00 +21°C° 4.3 mm 2 mps 667 mmHg 93%
    07:00 +21°C° 4.3 mm 2 mps 667 mmHg 94%
    08:00 +21°C° 4.3 mm 2 mps 667 mmHg 95%
    09:00 +21°C° 5.3 mm 2 mps 667 mmHg 94%
    10:00 +20°C° 5.3 mm 2 mps 667 mmHg 94%
    11:00 +20°C° 5.3 mm 3 mps 667 mmHg 93%
    12:00 +20°C° 1.1 mm 2 mps 667 mmHg 93%
    13:00 +20°C° 1.1 mm 2 mps 667 mmHg 93%
    14:00 +21°C° 1.1 mm 1 mps 667 mmHg 92%
    15:00 +21°C° 1.2 mm 1 mps 667 mmHg 92%
    16:00 +20°C° 1.2 mm 1 mps 667 mmHg 92%
    17:00 +18°C° 1.2 mm 0 mps 667 mmHg 92%
    18:00 +18°C° 0.1 mm 0 mps 667 mmHg 93%
    19:00 +18°C° 0.1 mm 0 mps 667 mmHg 93%
    20:00 +18°C° 0.1 mm 0 mps 667 mmHg 94%
    21:00 +18°C° 0 mm 0 mps 667 mmHg 94%
    22:00 +20°C° 0 mm 1 mps 668 mmHg 94%
    23:00 +19°C° 0 mm 1 mps 668 mmHg 94%

    11 December, Wednesday

    Time Temperature Precipitation Wind Pressure Humidity
    00:00 +19°C° 0 mm 1 mps 668 mmHg 94%
    01:00 +17°C° 0 mm 0 mps 667 mmHg 95%
    02:00 +17°C° 0 mm 0 mps 667 mmHg 95%
    03:00 +17°C° 0 mm 0 mps 667 mmHg 95%
    04:00 +16°C° 0 mm 0 mps 667 mmHg 95%
    05:00 +16°C° 0 mm 0 mps 667 mmHg 95%
    06:00 +18°C° 0 mm 0 mps 668 mmHg 88%
    07:00 +20°C° 0 mm 0 mps 669 mmHg 81%
    08:00 +22°C° 0 mm 0 mps 669 mmHg 74%
    09:00 +24°C° 0 mm 0 mps 669 mmHg 65%
    10:00 +27°C° 0 mm 1 mps 669 mmHg 57%
    11:00 +29°C° 0 mm 1 mps 670 mmHg 49%
    12:00 +30°C° 0 mm 2 mps 669 mmHg 46%
    13:00 +30°C° 0 mm 2 mps 668 mmHg 43%
    14:00 +31°C° 0 mm 3 mps 668 mmHg 39%
    15:00 +30°C° 0 mm 3 mps 668 mmHg 41%
    16:00 +30°C° 0 mm 3 mps 668 mmHg 42%
    17:00 +29°C° 0 mm 3 mps 667 mmHg 43%
    18:00 +28°C° 0 mm 3 mps 668 mmHg 50%
    19:00 +26°C° 0 mm 2 mps 668 mmHg 58%
    20:00 +24°C° 0 mm 2 mps 668 mmHg 66%
    21:00 +23°C° 0 mm 2 mps 668 mmHg 66%
    22:00 +23°C° 0 mm 1 mps 668 mmHg 67%
    23:00 +23°C° 0 mm 1 mps 669 mmHg 68%

    12 December, Thursday

    Time Temperature Precipitation Wind Pressure Humidity
    00:00 +22°C° 0 mm 1 mps 668 mmHg 68%
    01:00 +22°C° 0 mm 1 mps 668 mmHg 68%
    02:00 +22°C° 0 mm 1 mps 668 mmHg 68%
    03:00 +22°C° 0 mm 1 mps 667 mmHg 68%
    04:00 +21°C° 0 mm 1 mps 667 mmHg 67%
    05:00 +21°C° 0 mm 1 mps 667 mmHg 67%
    06:00 +21°C° 0 mm 0 mps 668 mmHg 61%
    07:00 +24°C° 0 mm 0 mps 669 mmHg 54%
    08:00 +26°C° 0 mm 0 mps 670 mmHg 48%
    09:00 +29°C° 0 mm 2 mps 670 mmHg 44%
    10:00 +30°C° 0 mm 3 mps 670 mmHg 41%
    11:00 +32°C° 0 mm 5 mps 671 mmHg 37%
    12:00 +33°C° 0 mm 4 mps 670 mmHg 36%
    13:00 +33°C° 0 mm 4 mps 670 mmHg 35%
    14:00 +33°C° 0 mm 3 mps 669 mmHg 34%
    15:00 +33°C° 0 mm 3 mps 669 mmHg 36%
    16:00 +31°C° 0 mm 3 mps 669 mmHg 37%
    17:00 +31°C° 0 mm 3 mps 669 mmHg 39%
    18:00 +29°C° 0.1 mm 3 mps 669 mmHg 51%
    19:00 +26°C° 0.1 mm 3 mps 670 mmHg 62%
    20:00 +24°C° 0.1 mm 3 mps 670 mmHg 74%
    21:00 +24°C° 0 mm 3 mps 670 mmHg 77%
    22:00 +22°C° 0 mm 4 mps 670 mmHg 80%
    23:00 +22°C° 0 mm 4 mps 671 mmHg 82%
    Show more